Lumberton, NC

11:31 AM EDT on July 26, 2017 (GMT -0400)
Lumberton Municipal

Weather History for KLBT - July, 2012

Change the Weather History Date:

Wednesday, July 18, 2012

  Actual Average Record
Temperature  
Mean Temperature 83 °F 81 °F  
Max Temperature 92 °F 91 °F 97 °F (2007)
Min Temperature 73 °F 72 °F 66 °F (2000)
Degree Days  
Heating Degree Days 0 0  
Month to date heating degree days 0 0  
Since 1 June heating degree days 0 0  
Since 1 July heating degree days 0 0  
Cooling Degree Days 18 16  
Month to date cooling degree days 330 288  
Year to date cooling degree days 1056 926  
Since 1 June cooling degree days 650 676  
Growing Degree Days 32 (Base 50)    
Moisture  
Dew Point 73 °F    
Average Humidity 75    
Maximum Humidity 94    
Minimum Humidity 56    
Precipitation  
Precipitation 0.00 in 0.20 in 0.80 in (2010)
Month to date precipitation 4.45 2.90  
Year to date precipitation 26.55 22.31  
Sea Level Pressure  
Sea Level Pressure 29.98 in    
Wind  
Wind Speed 6 mph (SW)    
Max Wind Speed 15 mph    
Max Gust Speed 18 mph    
Visibility 10 miles    
Events      
T = Trace of Precipitation, MM = Missing Value Source: NWS Daily Summary

Daily Weather History Graph

Daily Weather History Graph

Search for Another Location

Airport or City:

Trip Planner

Search our weather history database for the weather conditions in past years. The results will help you decide how hot, cold, wet, or windy it might be!

Date:

Astronomy

Jul. 18, 2012 Rise Set
Actual Time 6:16 AM EDT 8:27 PM EDT
Civil Twilight 5:48 AM EDT 8:56 PM EDT
Nautical Twilight 5:13 AM EDT 9:31 PM EDT
Astronomical Twilight 4:35 AM EDT 10:08 PM EDT
Moon 5:47 AM EDT (7/18) 7:59 PM EDT (7/18)
Length of Visible Light 15h 08m
Length of Day
14h 10m
Waning Crescent, 0% of the Moon is Illuminated
Jul 18
Waning Crescent
Jul 19
New
Jul 26
First Quarter
Aug 1
Full
Aug 9
Last Quarter

Hourly Weather History & Observations

Time (EDT) Temp. Heat Index Dew Point Humidity Pressure Visibility Wind Dir Wind Speed Gust Speed Precip Events Conditions
12:54 AM 77.0 °F - 75.0 °F 94% 29.96 in 10.0 mi SSW 4.6 mph - N/A   Clear
1:54 AM 75.9 °F - 73.9 °F 94% 29.95 in 10.0 mi SSW 4.6 mph - N/A   Clear
3:54 AM 75.0 °F - 72.0 °F 90% 29.96 in 10.0 mi SW 5.8 mph - N/A   Clear
4:54 AM 73.9 °F - 71.1 °F 91% 29.96 in 10.0 mi SW 3.5 mph - N/A   Clear
5:54 AM 73.0 °F - 71.1 °F 93% 29.97 in 10.0 mi Calm Calm - N/A   Clear
6:54 AM 73.9 °F - 72.0 °F 93% 29.99 in 10.0 mi SSW 3.5 mph - N/A   Clear
7:54 AM 77.0 °F - 73.0 °F 88% 30.01 in 10.0 mi SW 5.8 mph - N/A   Clear
8:54 AM 80.1 °F 84.5 °F 73.9 °F 81% 30.01 in 10.0 mi WSW 8.1 mph - N/A   Clear
9:54 AM 82.9 °F 90.2 °F 75.0 °F 77% 30.01 in 10.0 mi SW 10.4 mph - N/A   Clear
10:54 AM 84.9 °F 94.1 °F 75.9 °F 74% 30.01 in 10.0 mi SW 8.1 mph - N/A   Clear
11:54 AM 86.0 °F 96.0 °F 75.9 °F 72% 30.01 in 10.0 mi SW 9.2 mph - N/A   Unknown
12:54 PM 88.0 °F 96.5 °F 73.9 °F 63% 30.01 in 10.0 mi WSW 8.1 mph - N/A   Partly Cloudy
1:54 PM 90.0 °F 97.9 °F 73.0 °F 57% 30.00 in 10.0 mi SW 8.1 mph - N/A   Partly Cloudy
2:54 PM 90.0 °F 99.0 °F 73.9 °F 59% 29.99 in 10.0 mi Variable 6.9 mph - N/A   Clear
3:54 PM 91.0 °F 100.4 °F 73.9 °F 57% 29.96 in 10.0 mi WSW 8.1 mph - N/A   Partly Cloudy
4:54 PM 91.0 °F 99.3 °F 73.0 °F 55% 29.93 in 10.0 mi SSW 9.2 mph - N/A   Partly Cloudy
5:54 PM 90.0 °F 96.9 °F 72.0 °F 55% 29.93 in 10.0 mi SW 8.1 mph - N/A   Clear
6:54 PM 89.1 °F 98.0 °F 73.9 °F 61% 29.93 in 10.0 mi SSW 4.6 mph - N/A   Clear
7:54 PM 86.0 °F 93.0 °F 73.0 °F 65% 29.94 in 10.0 mi SSW 6.9 mph - N/A   Clear
8:54 PM 82.9 °F 88.0 °F 72.0 °F 69% 29.97 in 10.0 mi SSW 3.5 mph - N/A   Clear
9:54 PM 81.0 °F 86.2 °F 73.9 °F 79% 29.99 in 10.0 mi South 4.6 mph - N/A   Clear
10:54 PM 80.1 °F 84.5 °F 73.9 °F 81% 30.01 in 10.0 mi South 5.8 mph - N/A   Clear
11:54 PM 79.0 °F - 75.0 °F 88% 30.02 in 10.0 mi SSW 6.9 mph - N/A   Clear